TimePDT,TemperatureF,Dew PointF,Humidity,Sea Level PressureIn,VisibilityMPH,Wind Direction,Wind SpeedMPH,Gust SpeedMPH,PrecipitationIn,Events,Conditions,WindDirDegrees,DateUTC
12:15 AM,53.6,53.6,100,29.99,10.0,Calm,Calm,-,N/A,,Clear,0,2013-08-13 07:15:00
12:35 AM,53.6,51.8,94,29.99,10.0,Calm,Calm,-,N/A,,Clear,0,2013-08-13 07:35:00
12:55 AM,50.0,50.0,100,29.99,10.0,Calm,Calm,-,N/A,,Clear,0,2013-08-13 07:55:00
1:15 AM,51.8,51.8,100,29.98,10.0,Calm,Calm,-,N/A,,Clear,0,2013-08-13 08:15:00
1:35 AM,50.0,50.0,100,29.98,10.0,Calm,Calm,-,N/A,,Clear,0,2013-08-13 08:35:00
1:55 AM,51.8,51.8,100,29.98,10.0,Calm,Calm,-,N/A,,Clear,0,2013-08-13 08:55:00
2:15 AM,51.8,51.8,100,29.98,10.0,Calm,Calm,-,N/A,,Clear,0,2013-08-13 09:15:00
2:35 AM,51.8,51.8,100,29.98,10.0,Calm,Calm,-,N/A,,Clear,0,2013-08-13 09:35:00
2:55 AM,51.8,51.8,100,29.98,10.0,Calm,Calm,-,N/A,,Clear,0,2013-08-13 09:55:00
3:15 AM,50.0,50.0,100,29.98,10.0,Calm,Calm,-,N/A,,Clear,0,2013-08-13 10:15:00
3:35 AM,50.0,50.0,100,29.98,10.0,Calm,Calm,-,N/A,,Partly Cloudy,0,2013-08-13 10:35:00
3:55 AM,50.0,50.0,100,29.98,9.0,NNW,3.5,-,N/A,,Partly Cloudy,330,2013-08-13 10:55:00
4:15 AM,46.4,46.4,100,29.98,1.8,NNW,4.6,-,N/A,,Clear,340,2013-08-13 11:15:00
4:35 AM,48.2,48.2,100,29.98,10.0,Calm,Calm,-,N/A,,Clear,0,2013-08-13 11:35:00
4:55 AM,50.0,50.0,100,29.98,9.0,Calm,Calm,-,N/A,,Unknown,0,2013-08-13 11:55:00
5:15 AM,51.8,51.8,100,29.97,10.0,Calm,Calm,-,N/A,,Unknown,0,2013-08-13 12:15:00
5:35 AM,51.8,51.8,100,29.98,10.0,South,3.5,-,N/A,,Unknown,190,2013-08-13 12:35:00
5:55 AM,53.6,53.6,100,29.98,10.0,Calm,Calm,-,N/A,,Overcast,0,2013-08-13 12:55:00
6:15 AM,53.6,53.6,100,29.98,5.0,NW,3.5,-,N/A,,Overcast,310,2013-08-13 13:15:00
6:35 AM,53.6,53.6,100,29.98,5.0,NW,4.6,-,N/A,,Overcast,310,2013-08-13 13:35:00
6:55 AM,53.6,53.6,100,29.99,1.0,WNW,3.5,-,N/A,,Overcast,300,2013-08-13 13:55:00
7:15 AM,53.6,53.6,100,29.99,0.8,Calm,Calm,-,N/A,,Overcast,0,2013-08-13 14:15:00
7:35 AM,53.6,53.6,100,30.00,3.0,Calm,Calm,-,N/A,,Overcast,0,2013-08-13 14:35:00
7:55 AM,53.6,53.6,100,30.00,1.0,Calm,Calm,-,N/A,,Overcast,0,2013-08-13 14:55:00
8:15 AM,53.6,53.6,100,30.01,3.0,Calm,Calm,-,N/A,,Overcast,0,2013-08-13 15:15:00
8:35 AM,53.6,53.6,100,30.01,3.0,Calm,Calm,-,N/A,,Overcast,0,2013-08-13 15:35:00
8:55 AM,55.4,55.4,100,30.01,5.0,Calm,Calm,-,N/A,,Overcast,0,2013-08-13 15:55:00
9:15 AM,55.4,55.4,100,30.01,7.0,Calm,Calm,-,N/A,,Overcast,0,2013-08-13 16:15:00
9:35 AM,57.2,57.2,100,30.01,8.0,Calm,Calm,-,N/A,,Overcast,0,2013-08-13 16:35:00
9:55 AM,59.0,55.4,88,30.01,9.0,NE,4.6,-,N/A,,Mostly Cloudy,50,2013-08-13 16:55:00
10:15 AM,62.6,55.4,77,30.01,9.0,North,4.6,-,N/A,,Clear,350,2013-08-13 17:15:00
10:35 AM,62.6,57.2,82,30.01,9.0,North,3.5,-,N/A,,Clear,350,2013-08-13 17:35:00
10:55 AM,66.2,55.4,68,30.00,10.0,NE,4.6,-,N/A,,Clear,50,2013-08-13 17:55:00
11:15 AM,68.0,57.2,68,29.99,10.0,Calm,Calm,-,N/A,,Clear,0,2013-08-13 18:15:00
11:35 AM,71.6,55.4,57,29.98,-9999.0,NE,5.8,-,N/A,,Clear,40,2013-08-13 18:35:00
11:55 AM,75.2,55.4,50,29.98,-9999.0,ENE,3.5,-,N/A,,Clear,60,2013-08-13 18:55:00
12:15 PM,75.2,55.4,50,29.97,-9999.0,SSE,3.5,-,N/A,,Clear,160,2013-08-13 19:15:00
12:35 PM,77.0,55.4,47,29.97,-9999.0,Calm,Calm,-,N/A,,Clear,0,2013-08-13 19:35:00
12:55 PM,80.6,55.4,42,29.96,-9999.0,Calm,Calm,-,N/A,,Clear,0,2013-08-13 19:55:00
1:15 PM,82.4,55.4,39,29.95,-9999.0,NE,4.6,-,N/A,,Clear,50,2013-08-13 20:15:00
1:35 PM,84.2,53.6,35,29.95,-9999.0,Calm,Calm,-,N/A,,Clear,0,2013-08-13 20:35:00
1:55 PM,86.0,53.6,33,29.94,-9999.0,SSE,6.9,-,N/A,Rain,Light Rain,150,2013-08-13 20:55:00
2:15 PM,86.0,55.4,35,29.94,-9999.0,SE,4.6,-,N/A,Rain,Light Rain,130,2013-08-13 21:15:00
2:35 PM,89.6,53.6,29,29.93,-9999.0,Calm,Calm,-,N/A,Rain,Light Rain,0,2013-08-13 21:35:00
2:55 PM,89.6,53.6,29,29.93,-9999.0,Calm,Calm,-,N/A,Rain,Light Rain,0,2013-08-13 21:55:00
3:15 PM,91.4,55.4,29,29.92,-9999.0,North,10.4,-,N/A,,Clear,10,2013-08-13 22:15:00
3:35 PM,91.4,55.4,29,29.91,-9999.0,NW,9.2,-,N/A,,Clear,320,2013-08-13 22:35:00
3:55 PM,91.4,55.4,29,29.91,-9999.0,West,10.4,-,N/A,,Clear,280,2013-08-13 22:55:00
4:55 PM,87.8,48.2,25,29.91,-9999.0,SW,11.5,-,N/A,,Clear,230,2013-08-13 23:55:00
5:15 PM,86.0,48.2,27,29.91,-9999.0,WSW,12.7,17.3,N/A,,Clear,250,2013-08-14 00:15:00
5:35 PM,86.0,46.4,25,29.91,-9999.0,WSW,10.4,-,N/A,,Clear,240,2013-08-14 00:35:00
5:55 PM,84.2,50.0,30,29.91,-9999.0,SW,8.1,-,N/A,,Clear,230,2013-08-14 00:55:00
6:15 PM,82.4,48.2,30,29.90,-9999.0,South,9.2,-,N/A,,Clear,190,2013-08-14 01:15:00
6:35 PM,82.4,46.4,28,29.90,-9999.0,South,8.1,-,N/A,,Clear,180,2013-08-14 01:35:00
6:55 PM,80.6,48.2,32,29.90,-9999.0,Calm,Calm,-,N/A,,Clear,0,2013-08-14 01:55:00
7:15 PM,77.0,46.4,34,29.90,-9999.0,NNE,5.8,-,N/A,,Clear,20,2013-08-14 02:15:00
7:35 PM,73.4,50.0,44,29.91,-9999.0,East,4.6,-,N/A,,Clear,100,2013-08-14 02:35:00
7:55 PM,69.8,50.0,49,29.91,-9999.0,NNE,3.5,-,N/A,,Clear,30,2013-08-14 02:55:00
8:15 PM,68.0,50.0,52,29.91,-9999.0,SSE,4.6,-,N/A,,Clear,160,2013-08-14 03:15:00
8:35 PM,66.2,50.0,56,29.92,-9999.0,East,5.8,-,N/A,,Clear,80,2013-08-14 03:35:00
8:55 PM,64.4,51.8,64,29.92,-9999.0,NE,3.5,-,N/A,,Clear,50,2013-08-14 03:55:00
9:15 PM,62.6,50.0,63,29.93,10.0,Calm,Calm,-,N/A,,Clear,0,2013-08-14 04:15:00
9:35 PM,59.0,53.6,82,29.93,10.0,North,4.6,-,N/A,,Clear,10,2013-08-14 04:35:00
9:55 PM,59.0,53.6,82,29.94,10.0,North,5.8,-,N/A,,Clear,350,2013-08-14 04:55:00
10:15 PM,57.2,53.6,88,29.94,10.0,North,3.5,-,N/A,,Clear,350,2013-08-14 05:15:00
10:35 PM,57.2,53.6,88,29.94,10.0,North,5.8,-,N/A,,Clear,350,2013-08-14 05:35:00
10:55 PM,55.4,53.6,94,29.95,10.0,NNW,5.8,-,N/A,,Clear,340,2013-08-14 05:55:00
11:15 PM,57.2,53.6,88,29.95,10.0,NNW,4.6,-,N/A,,Clear,330,2013-08-14 06:15:00
11:35 PM,57.2,53.6,88,29.95,10.0,NNW,4.6,-,N/A,,Clear,330,2013-08-14 06:35:00
11:55 PM,57.2,53.6,88,29.95,10.0,Calm,Calm,-,N/A,,Clear,0,2013-08-14 06:55:00